This is the latest recevied weather packets stored in our database for station/object DJ2DS-13. If no packets are shown the sender has not sent any weather packets the latest 10 day(s).
| Time | Temp. | Humidity | Pressure | Rain* | Wind** | Luminosity | Snow |
|---|---|---|---|---|---|---|---|
| 1777145055 | 7.78° C | 81% | 1019.1 hPa | 0 mm | - | 0 W/m² | - |
| 1777144755 | 7.78° C | 81% | 1019 hPa | 0 mm | - | 0 W/m² | - |
| 1777144454 | 8.33° C | 81% | 1019 hPa | 0 mm | - | 0 W/m² | - |
| 1777144155 | 8.33° C | 81% | 1018.9 hPa | 0 mm | - | 0 W/m² | - |
| 1777143855 | 8.33° C | 82% | 1018.7 hPa | 0 mm | - | 0 W/m² | - |
| 1777143555 | 8.33° C | 82% | 1018.7 hPa | 0 mm | - | 0 W/m² | - |
| 1777143257 | 8.33° C | 81% | 1018.5 hPa | 0 mm | - | 0 W/m² | - |
| 1777142955 | 8.33° C | 81% | 1018.5 hPa | 0 mm | - | 0 W/m² | - |
| 1777142656 | 8.33° C | 81% | 1018.5 hPa | 0 mm | - | 0 W/m² | - |
| 1777142355 | 8.33° C | 80% | 1018.5 hPa | 0 mm | - | 0 W/m² | - |
| 1777142055 | 8.33° C | 80% | 1018.5 hPa | 0 mm | - | 5 W/m² | - |
| 1777141755 | 8.33° C | 80% | 1018.4 hPa | 0 mm | - | 7 W/m² | - |
| 1777141454 | 8.33° C | 80% | 1018.4 hPa | 0 mm | - | 9 W/m² | - |
| 1777141154 | 8.33° C | 80% | 1018.3 hPa | 0 mm | - | 11 W/m² | - |
| 1777140868 | 8.33° C | 80% | 1018.3 hPa | 0 mm | - | 9 W/m² | - |
| 1777140556 | 8.33° C | 80% | 1018.4 hPa | 0 mm | - | 14 W/m² | - |
| 1777140255 | 8.33° C | 80% | 1018.3 hPa | 0 mm | - | 12 W/m² | - |
| 1777139954 | 8.33° C | 79% | 1018.3 hPa | 0 mm | - | 16 W/m² | - |
| 1777139656 | 8.33° C | 79% | 1018.3 hPa | 0 mm | - | 26 W/m² | - |
| 1777139355 | 8.33° C | 79% | 1018.3 hPa | 0 mm | - | 30 W/m² | - |
| 1777139055 | 8.33° C | 78% | 1018.3 hPa | 0 mm | - | 51 W/m² | - |
| 1777138754 | 8.33° C | 78% | 1018.3 hPa | 0 mm | - | 83 W/m² | - |
| 1777138454 | 8.33° C | 78% | 1018.3 hPa | 0 mm | - | 49 W/m² | - |
| 1777138169 | 8.33° C | 77% | 1018.2 hPa | 0 mm | - | 42 W/m² | - |
| 1777137854 | 8.89° C | 77% | 1018.1 hPa | 0 mm | - | 40 W/m² | - |
* Rain latest hour (hover to see other rain measurements)
** Current wind speed in m/s (hover to see current wind gust speed)